Regional Weather Roundup
Issued by NWS

Home | Current Version | Previous Version | Text Only | Print | Product List | Glossary Off
Versions: 1 2 3 4 5 6 7 8 9 10 11 12 13 14 15 16 17 18 19 20 21 22 23 24 25 26 27 28 29 30 31 32 33 34 35 36 37 38 39 40 41 42 43 44 45 46 47 48 49 50

000
ASUS43 KTOP 181608
RWRKS

WEATHER ROUNDUP FOR KANSAS
NATIONAL WEATHER SERVICE GOODLAND KS
1100 AM CDT THU SEP 18 2014

NOTE:  "FAIR" INDICATES FEW OR NO CLOUDS BELOW 12,000 FEET WITH NO
SIGNIFICANT WEATHER AND/OR OBSTRUCTIONS TO VISIBILITY.

KSZ001>006-013>018-027>032-041>047-181700-
NORTHWEST KANSAS

CITY           SKY/WX    TMP DP  RH WIND       PRES   REMARKS
GOODLAND       CLOUDY    67  62  84 VRB3      30.01R
HAYS           CLOUDY    66  63  88 E13       29.97R
HILL CITY      FOG       64  63  96 E10       29.98R VSB 1
RUSSELL        CLOUDY    66  64  93 E12       29.95S FOG
$$

KSZ061>065-074>080-084>089-181700-
SOUTHWEST KANSAS

CITY           SKY/WX    TMP DP  RH WIND       PRES   REMARKS
DODGE CITY     SUNNY     82  56  40 SW10      29.96S
ELKHART          N/A     79  58  48 S8          N/A
GARDEN CITY    SUNNY     76  59  55 W6        29.96R
GREAT BEND     PTSUNNY   73  64  73 S17       29.95S
LIBERAL        SUNNY     79  63  57 S9        30.00S
PRATT          PTSUNNY   73  63  68 S25G36    29.99R
$$

KSZ066>073-081>083-090>101-181700-
SOUTHEAST KANSAS

CITY           SKY/WX    TMP DP  RH WIND       PRES   REMARKS
CHANUTE        CLOUDY    66  64  93 NW3       30.00R
COFFEYVILLE    CLOUDY    67  63  87 W7        29.93F
HUTCHINSON     PTSUNNY   76  60  57 S23G32    30.00R
MEDICINE LODGE   N/A     74  61  63 S14G25    30.01R
NEWTON         PTSUNNY   70  61  73 S15G21    30.02F
PARSONS        CLOUDY    68  65  90 CALM      29.99S
WICHITA INTL   PTSUNNY   73  59  61 S18       30.01R
WICHITA JABRA  PTSUNNY   71  59  65 S21G28    30.01R
WINFIELD       PTSUNNY   72  62  71 SE15      30.01S
$$

KSZ007>012-019>026-033>040-048>060-102>105-181700-
NORTHEAST KANSAS

CITY           SKY/WX    TMP DP  RH WIND       PRES   REMARKS
CONCORDIA      CLOUDY    67  65  93 SE13      30.00R
EMPORIA        CLOUDY    64  64 100 CALM      30.00S
LAWRENCE       CLOUDY    64  60  87 E7        30.03S FOG
MANHATTAN      CLOUDY    69  65  86 SE5       30.01R
MARYSVILLE     SUNNY     70  63  78 SE9       30.01S
OLATHE IND     CLOUDY    64  62  93 E8        30.04R FOG
OLATHE EXE     CLOUDY    62  61  96 E7        30.03R FOG
SALINA         CLOUDY    69  64  84 SE17      29.99R
TOPEKA BILLARD CLOUDY    67  64  90 E9        30.03R FOG
TOPEKA FORBES  CLOUDY    66  63  90 E9        30.02R FOG
$$



USA.gov is the U.S. government's official web portal to all federal, state and local government web resources and services.